Regional Weather Roundup
Issued by NWS Upton, NY

Current Version | Previous Version | Text Only | Print | Product List | Glossary On
Versions: 1 2 3 4 5 6 7 8 9 10 11 12 13 14 15 16 17 18 19 20 21 22 23 24 25 26 27 28 29 30 31 32 33 34 35 36 37 38 39 40 41 42 43 44 45 46 47 48 49 50
390
ASUS41 KOKX 200410
RWROKX

REGIONAL WEATHER ROUNDUP
NATIONAL WEATHER SERVICE NEW YORK NY
1200 AM EDT WED SEP 20 2017

NOTE: "FAIR" INDICATES FEW OR NO CLOUDS BELOW 12,000 FEET WITH NO
SIGNIFICANT WEATHER AND/OR OBSTRUCTIONS TO VISIBILITY.

NYZ071-072-176-178-NJZ106-104-200500-
NEW YORK CITY METRO AREA

CITY           SKY/WX    TMP DP  RH WIND       PRES   REMARKS
Central Park   CLOUDY    72  64  76 NE9       29.89F
Bronx Bot Gard   N/A     70  63  78 N9        29.89S
LaGuardia APRT CLOUDY    72  66  81 N12       29.85F
Kennedy INTL   CLOUDY    72  65  78 N20G26    29.85S
Breezy Point     N/A     72 N/A N/A N15G28      N/A
Newark/Liberty MOCLDY    73  64  73 N17       29.85F
Teterboro      CLOUDY    74  64  71 N13G21    29.85F
$$

NYZ177-179-078>081-200500-
LONG ISLAND NEW YORK

CITY           SKY/WX    TMP DP  RH WIND       PRES   REMARKS
Jones Beach      N/A     70 N/A N/A NE26G36     N/A
Matinecock PT    N/A     72 N/A N/A NE24        N/A
Farmingdale    CLOUDY    69  66  90 N18G26    29.83F
MacArthur/ISP  LGT RAIN  69  68  96 N14G23    29.82F FOG
Shirley        HVY RAIN  70  68  93 N12G24    29.83S FOG
Mt Sinai Harb    N/A    N/A N/A N/A N23G29      N/A
Westhampton    CLOUDY    69  65  86 N20G29    29.82F
East Hampton   CLOUDY    67  65  94 NE12G23   29.82S
Montauk          N/A     69  67  93 NE15G32   29.83F
$$

NYZ052-065-067-200500-
HUDSON VALLEY

CITY           SKY/WX    TMP DP  RH WIND       PRES   REMARKS
White Plains   MOCLDY    70  64  81 N17G25    29.87F
Larchmont Harb   N/A     72 N/A N/A N17G23      N/A
Croton On Huds   N/A     72 N/A N/A N2G8        N/A
Newburgh       NOT AVBL
Montgomery     MOCLDY    71  62  73 NE12      29.93F
Poughkeepsie   CLOUDY    70  62  76 N6        29.92F
Albany         MOCLDY    65  61  87 N5        30.00F
$$

NJZ001-105-106-008-010-013-015-019>022-104-200500-
NEW JERSEY

CITY           SKY/WX    TMP DP  RH WIND       PRES   REMARKS
Newark/Liberty MOCLDY    73  64  73 N17       29.85F
Teterboro      CLOUDY    74  64  71 N13G21    29.85F
Caldwell       CLOUDY    71  65  81 NE7       29.88F
Somerville     NOT AVBL
Linden         CLOUDY    73  63  70 N9G16     29.86F
Perth Amboy      N/A     73 N/A N/A N13G21      N/A
Sussex         CLOUDY    72  62  71 NE9       29.92F
Andover          N/A     70  63  78 NE5       29.92F
Trenton        PTCLDY    71  65  81 N10       29.86F
Millville      CLOUDY    72  68  87 N12       29.84S
Atlantic City  CLOUDY    69  67  93 N14G22    29.80F
Wrightstown    CLOUDY    69  65  87 N10       29.81F
Toms River     CLOUDY    69  66  90 N10       29.83S
Belmar         LGT RAIN  69  66  90 N14G23    29.84F
$$

PAZ047>061-062-071-200500-
EASTERN PENNSYLVANIA

CITY           SKY/WX    TMP DP  RH WIND       PRES   REMARKS
Philadelphia   CLOUDY    72  64  76 N14G24    29.87S
Allentown      CLOUDY    69  63  81 NW5       29.91F
Scranton       CLEAR     65  61  87 CALM      29.97F
$$

CTZ002-004>006-009-010-012-RIZ004-006-007-MAZ004-011-015-200500-
SOUTHERN NEW ENGLAND
 IN CT

CITY           SKY/WX    TMP DP  RH WIND       PRES   REMARKS
Bradley INTL   CLOUDY    70  65  84 N14       29.94S
Hartford       CLOUDY    70  65  84 N10       29.91F
Danbury        MOCLDY    70  64  81 NE10      29.92S
Wtrbury/Oxford CLOUDY    68  64  87 NE16G26   29.92S
Norwalk Harbor   N/A     70 N/A N/A N21G26      N/A
Bridgeport     CLOUDY    71  64  78 NE20G31   29.85F
Meriden        CLOUDY    69  64  84 N10G21    29.89F
New Haven      CLOUDY    70  64  81 N17       29.86F
Chester        CLOUDY    70  64  83 NE12G18   29.89S
Groton         CLOUDY    69  65  86 N17G25    29.83F
Wilimantic     CLOUDY    70  66  87 NE15G23   29.91F

 IN RI

CITY           SKY/WX    TMP DP  RH WIND       PRES   REMARKS
Providence     LGT RAIN  66  65  96 N17       29.91F FOG
Block Island   CLOUDY    66  65  96 NE18G28   29.83S
Westerly       LGT RAIN  69  66  90 N14G25    29.85F
 IN MA

CITY           SKY/WX    TMP DP  RH WIND       PRES   REMARKS
Boston         CLOUDY    63  63 100 N16       29.96F FOG
Worcester      LGT RAIN  63  62  97 NE14G25   29.97F VSB 1/2
Westfield      CLOUDY    70  65  84 N14       29.95F
Provincetown   CLOUDY    64  63  96 NE13      29.91F FOG
Nantucket      CLOUDY    66  66 100 NE21G28   29.82F FOG
$$

ANZ330-335-338-340-345-350-353-355-200500-
COASTAL MARINE OBSERVATIONS


STATION/POSITION TIME  SKY/WX   TEMP    WIND        PRES    VSBY  WAVE
                                AIR SEA DIR/SP/G                  HT/PER
                 (UTC)          (F)     (DEG/KT/KT) (MB)    (MI)  (FT/S)
NY HARB ENTRANCE 0350            72 70   10/ 25/ 29 1008.2          9/12
20 S FIRE ISLAND 0350            69 67   20/ 25/ 33 1007.3         12/12
GREAT SOUTH BAY  0330            69 72   20/ 19/ 23   N/A
23 SSW MONTAUK P 0350            67 67              1007.6         13/13
15 E BARNEGAT LI 0300               70                N/A          12/13
HUDSON CANYON    0350            69 68   30/ 31/ 39 1001.7         20/11
KINGS POINT      0342            72 71   60/ 10/ 15 1011.7
EXECUTION ROCKS  0345            73      40/ 17/ 23   N/A
WESTERN LI SOUND NOT AVBL
CENTRAL LI SOUND 0330            71      40/ 21/ 25   N/A           3
EASTERN LI SOUND NOT AVBL
ROBBINS REEF     0342            72      10/ 22/ 27 1011.4
$$


>>>>>>>>>>>>>>>>>>>>>>>>>>>> KEY <<<<<<<<<<<<<<<<<<<<<<<<<<<
>                                                          <
>     SKY/WX - Sky Condition/Present Weather               <
>     TMP    - Temperature in Fahrenheit                   <
>     DP     - Dew Point in Fahrenheit                     <
>     RH     - Relative Humidity in Percent                <
>     WIND   - Direction (from) and Speed in MPH           <
>     PRES   - Mean Sea Level Pressure (inches of Hg)      <
>     WCI    - Wind Chill Index                            <
>     VSB    - VISIBILITY IN MILES                         <
>     HX     - HEAT INDEX                                  <
>     TC     - TEMPERATURE IN CELSIUS                      <
>     VRB    - VARIABLE WIND DIRECTION                     <
>                                                          <
>>>>>>>>>>>>>>>>>>>>>>>>>>>> KEY <<<<<<<<<<<<<<<<<<<<<<<<<<<




USA.gov is the U.S. government's official web portal to all federal, state and local government web resources and services.